Temp
17 17 17 18 18 19 18 18 16 16 17 17 16 15 16 15 14 14 13 12 12 12 12 11 11 10 10 10 10 10 11 12 11 11 11 10 10 10 10 9 9 9 9 10
17 17 18 18 18 19 18 18 17 17 19 19 18 16 15 15 15 15 14 14 13 12 12 11 11 10 10 11 10 11 11 11 11 11 11 11 11 9 10 10 10 10 10 10
17 18 18 19 19 19 19 18 18 20 20 19 18 16 14 15 15 15 15 14 14 13 12 12 12 11 11 12 11 11 11 11 11 11 11 11 11 11 9 10 9 10 9 9
18 18 19 19 20 19 19 18 16 17 20 20 19 15 15 16 17 15 15 15 15 14 13 12 12 12 12 12 12 11 11 11 11 11 11 11 11 11 10 10 9 10 10 10
18 18 19 19 20 20 20 18 18 19 21 21 21 18 17 16 17 16 16 16 15 15 14 13 13 13 13 13 12 12 11 11 11 11 11 11 11 10 9 11 9 10 11 10
18 19 19 20 20 20 20 20 20 20 21 20 21 18 16 17 16 17 17 16 16 15 15 15 13 13 13 13 13 13 12 12 11 11 11 11 11 10 10 11 10 10 10 10
18 18 19 19 19 20 20 20 20 17 17 16 20 20 19 18 19 20 18 17 16 15 16 15 14 14 14 14 14 14 13 12 12 12 12 11 11 11 10 10 9 9 11 10
18 18 19 19 19 19 19 20 19 17 15 18 20 18 19 19 18 18 19 18 16 16 16 16 15 14 14 14 14 14 14 13 13 13 13 13 12 11 10 10 9 9 11 11
18 18 19 20 19 19 19 19 20 20 21 20 19 17 18 19 19 19 17 17 16 16 16 16 15 14 14 14 14 15 14 14 13 13 12 12 12 11 10 10 10 10 11 11
18 18 19 20 19 19 19 20 19 20 17 16 20 18 19 19 19 18 18 17 17 16 17 16 16 15 15 14 14 15 14 14 13 13 12 12 11 11 10 10 10 10 10 11
18 18 19 19 19 19 19 19 19 20 20 16 14 19 21 20 19 18 15 18 18 17 17 16 16 16 16 15 15 14 14 14 13 13 12 12 11 10 10 10 10 10 10 11
18 18 19 19 20 20 19 19 20 20 20 21 21 20 20 20 19 19 19 18 18 17 15 15 16 16 16 16 15 15 15 14 14 13 13 12 12 11 11 11 11 10 10 11
18 18 18 19 19 20 20 20 20 20 20 20 19 20 21 20 20 19 19 19 18 18 17 15 16 15 16 16 16 15 15 14 14 14 13 13 12 13 12 12 11 11 11 11
18 18 18 18 19 20 20 20 20 20 20 21 21 21 20 20 20 20 19 18 18 17 16 17 15 15 16 16 15 15 14 15 14 14 13 13 12 12 12 12 12 12 12 12
18 18 18 19 19 19 20 20 20 20 20 20 20 21 20 20 19 19 19 19 18 18 17 17 17 16 16 15 15 15 15 14 14 13 13 13 12 12 12 12 12 11 12 12
17 17 18 18 19 19 20 20 20 20 20 20 20 20 20 20 20 19 19 18 19 18 18 17 17 17 16 16 16 15 15 14 14 13 13 13 13 12 12 11 11 11 11 11
17 17 18 18 18 19 19 20 20 20 20 20 20 20 19 19 19 19 19 19 19 18 18 18 17 17 16 16 15 15 14 14 13 14 14 13 13 12 12 11 11 11 11 12
16 17 18 18 18 16 19 20 20 20 20 21 20 19 19 19 19 19 18 19 17 18 17 18 17 17 16 15 15 14 14 14 14 14 14 13 12 12 12 12 12 12 12 11
17 17 17 18 18 18 19 20 20 20 19 20 19 18 18 18 18 17 17 16 17 18 18 17 17 17 16 15 15 14 14 14 14 14 13 13 12 12 12 11 11 10 10 10
17 17 17 18 18 16 19 20 19 19 18 19 19 18 18 18 17 17 16 15 15 16 17 17 17 16 15 15 15 14 14 14 14 13 13 12 11 11 11 10 10 10 10 10
15 17 18 18 18 18 19 19 19 18 18 17 19 19 18 18 18 17 16 12 11 14 13 17 16 15 15 15 15 14 14 14 13 12 12 12 12 11 11 10 10 10 10 10
15 15 17 18 18 18 18 19 18 18 17 18 17 18 18 17 17 16 15 11 11 12 12 15 15 14 14 14 14 14 14 13 13 12 11 11 11 11 10 10 10 10 9 9
15 15 15 15 13 15 16 17 18 18 18 17 17 17 17 16 16 15 16 11 11 12 12 15 14 13 14 14 13 14 14 13 12 12 11 11 10 10 10 10 9 9 9 9
14 14 14 14 14 14 14 17 18 18 16 16 17 17 16 16 16 16 16 14 12 13 13 14 14 13 14 13 13 13 13 13 12 12 11 10 10 10 10 10 10 9 9 9
14 15 14 14 13 14 14 16 16 16 16 16 16 16 16 15 15 15 15 13 13 12 13 14 13 12 13 12 13 13 13 12 11 11 11 11 10 10 10 10 9 8 8 8
12 12 13 14 13 11 13 15 16 15 16 16 17 15 15 14 14 13 11 12 12 13 12 12 12 12 12 11 10 11 11 11 11 11 10 10 10 10 9 9 9 8 8 9
Height
3181 3185 3182 3182 3186 3188 3190 3194 3197 3196 3192 3194 3192 3199 3193 3196 3201 3202 3202 3206 3210 3214 3216 3217 3217 3217 3217 3218 3220 3221 3220 3222 3223 3223 3224 3226 3226 3226 3229 3230 3230 3232 3230 3231
3180 3181 3180 3181 3186 3185 3185 3191 3189 3191 3192 3190 3190 3194 3195 3196 3195 3196 3200 3203 3207 3211 3214 3216 3217 3216 3216 3218 3219 3220 3220 3220 3222 3223 3224 3225 3226 3227 3228 3230 3233 3235 3231 3230
3176 3178 3179 3179 3183 3183 3179 3186 3184 3182 3186 3186 3186 3195 3194 3194 3199 3199 3196 3198 3202 3207 3210 3213 3215 3214 3215 3217 3219 3218 3218 3219 3221 3222 3223 3224 3224 3225 3228 3229 3231 3233 3231 3232
3172 3175 3176 3179 3178 3180 3180 3185 3188 3185 3184 3184 3181 3188 3192 3193 3197 3196 3196 3198 3201 3204 3206 3209 3213 3212 3212 3214 3217 3218 3218 3219 3220 3221 3223 3223 3224 3226 3227 3228 3228 3229 3229 3229
3170 3171 3172 3174 3176 3175 3177 3180 3175 3179 3180 3181 3180 3182 3187 3192 3192 3193 3195 3196 3199 3202 3204 3205 3208 3211 3210 3212 3214 3218 3218 3219 3219 3220 3221 3222 3223 3224 3225 3225 3225 3224 3227 3228
3166 3167 3169 3170 3171 3172 3173 3173 3174 3175 3177 3178 3175 3178 3185 3189 3198 3197 3193 3192 3195 3198 3201 3203 3203 3208 3209 3210 3214 3216 3218 3218 3218 3218 3219 3220 3223 3224 3225 3224 3225 3225 3226 3228
3163 3162 3164 3167 3167 3170 3171 3172 3173 3176 3175 3172 3173 3175 3174 3176 3172 3172 3183 3190 3193 3194 3198 3201 3203 3204 3208 3208 3212 3215 3217 3217 3217 3217 3218 3219 3221 3223 3225 3224 3225 3225 3226 3228
3161 3162 3161 3164 3165 3168 3169 3172 3173 3176 3175 3170 3170 3170 3171 3173 3176 3178 3183 3187 3191 3193 3197 3200 3203 3204 3206 3207 3210 3214 3216 3217 3217 3218 3218 3219 3220 3222 3223 3224 3225 3224 3226 3226
3158 3158 3158 3159 3162 3166 3167 3168 3170 3169 3167 3168 3169 3172 3172 3171 3173 3176 3181 3183 3189 3194 3197 3200 3203 3204 3206 3209 3210 3213 3215 3216 3218 3218 3218 3219 3219 3221 3221 3223 3224 3223 3224 3225
3153 3156 3153 3156 3159 3162 3164 3166 3168 3166 3168 3171 3167 3168 3166 3167 3170 3173 3175 3180 3183 3187 3192 3195 3199 3201 3203 3209 3211 3213 3214 3215 3217 3218 3217 3218 3219 3219 3220 3221 3223 3222 3222 3224
3152 3155 3149 3151 3153 3158 3162 3161 3164 3165 3165 3164 3167 3164 3160 3164 3165 3169 3170 3174 3176 3178 3189 3193 3197 3199 3199 3206 3210 3212 3212 3213 3215 3216 3217 3217 3217 3216 3218 3219 3221 3222 3221 3223
3151 3152 3149 3151 3153 3154 3157 3159 3160 3161 3160 3159 3158 3159 3159 3159 3163 3166 3167 3171 3174 3185 3183 3197 3197 3196 3196 3201 3207 3211 3212 3213 3214 3214 3215 3216 3216 3217 3215 3215 3218 3219 3221 3221
3149 3149 3149 3147 3148 3152 3152 3155 3157 3158 3157 3156 3158 3160 3159 3161 3165 3164 3169 3171 3173 3171 3176 3178 3191 3196 3195 3198 3204 3209 3211 3213 3213 3214 3214 3213 3215 3215 3215 3216 3217 3217 3220 3220
3145 3146 3147 3147 3146 3149 3150 3150 3152 3154 3155 3154 3155 3153 3159 3160 3165 3166 3167 3168 3171 3168 3170 3174 3183 3190 3194 3197 3201 3205 3209 3211 3212 3213 3212 3212 3212 3213 3214 3215 3215 3216 3218 3218
3141 3142 3143 3143 3144 3144 3141 3144 3146 3149 3149 3150 3154 3156 3157 3159 3162 3165 3167 3171 3174 3174 3176 3179 3181 3187 3192 3195 3198 3202 3205 3208 3210 3211 3211 3211 3211 3211 3211 3212 3213 3214 3214 3214
3139 3140 3141 3140 3141 3140 3140 3142 3142 3144 3145 3145 3149 3151 3152 3153 3159 3163 3164 3168 3171 3174 3175 3177 3182 3186 3189 3192 3196 3200 3203 3206 3207 3208 3208 3208 3208 3208 3208 3209 3210 3210 3211 3211
3140 3140 3140 3140 3139 3138 3139 3137 3138 3140 3141 3142 3142 3146 3147 3148 3154 3158 3160 3163 3166 3169 3172 3177 3181 3184 3187 3190 3194 3197 3201 3203 3205 3205 3205 3204 3203 3204 3205 3206 3206 3206 3206 3207
3136 3138 3138 3137 3137 3138 3136 3136 3137 3137 3138 3138 3139 3142 3146 3149 3153 3159 3162 3161 3163 3164 3168 3174 3179 3183 3186 3188 3192 3195 3198 3201 3204 3203 3201 3200 3200 3201 3202 3203 3204 3204 3203 3203
3134 3134 3135 3135 3135 3135 3133 3134 3136 3134 3136 3135 3135 3140 3144 3148 3153 3153 3158 3165 3168 3164 3170 3172 3177 3180 3182 3188 3192 3194 3196 3199 3200 3199 3198 3200 3200 3200 3201 3202 3202 3201 3201 3200
3131 3130 3132 3131 3131 3131 3131 3131 3132 3131 3137 3136 3137 3139 3142 3145 3148 3149 3153 3157 3159 3171 3169 3171 3174 3177 3180 3183 3189 3193 3194 3196 3197 3196 3196 3196 3197 3198 3199 3200 3200 3199 3198 3196
3126 3126 3125 3126 3126 3128 3127 3127 3129 3133 3139 3135 3135 3137 3139 3143 3147 3145 3142 3136 3147 3160 3165 3168 3171 3176 3178 3182 3185 3189 3191 3194 3195 3195 3196 3196 3197 3197 3198 3198 3197 3196 3194 3192
3123 3123 3122 3122 3122 3123 3124 3125 3126 3131 3136 3134 3133 3134 3135 3138 3140 3139 3142 3142 3146 3147 3155 3168 3172 3176 3177 3179 3184 3187 3190 3192 3192 3193 3195 3195 3195 3195 3194 3194 3194 3192 3188 3186
3118 3120 3121 3122 3125 3120 3117 3119 3123 3128 3133 3137 3134 3135 3136 3138 3142 3141 3140 3133 3138 3151 3160 3167 3171 3176 3174 3176 3180 3184 3186 3188 3190 3191 3193 3193 3192 3191 3190 3189 3187 3185 3183 3179
3109 3112 3115 3122 3123 3121 3119 3120 3123 3125 3129 3134 3134 3133 3135 3137 3139 3140 3138 3139 3146 3152 3163 3165 3168 3174 3171 3174 3178 3182 3185 3187 3188 3188 3189 3189 3188 3187 3186 3184 3182 3179 3175 3171
3109 3110 3112 3119 3122 3122 3121 3121 3124 3128 3133 3135 3134 3134 3135 3140 3143 3144 3145 3148 3153 3158 3162 3164 3168 3172 3172 3173 3174 3177 3181 3183 3183 3180 3182 3183 3182 3181 3180 3177 3174 3172 3169 3166
3107 3110 3112 3117 3118 3118 3114 3114 3123 3126 3135 3133 3134 3134 3136 3141 3141 3147 3140 3150 3151 3157 3160 3164 3166 3166 3167 3168 3173 3176 3177 3179 3180 3180 3178 3176 3176 3176 3174 3172 3170 3168 3164 3160
Wind_Speed
13 12 17 9 18 8 5 12 8 10 18 18 17 23 11 17 15 11 12 16 16 17 19 17 19 17 18 17 10 14 12 7 9 7 5 1 4 1 2 3 1 2 3 5
14 21 17 17 16 11 15 11 9 14 13 17 4 20 25 21 20 11 12 13 12 14 18 17 8 19 18 13 9 15 13 8 8 8 7 5 3 8 2 3 3 2 4 5
18 17 18 15 18 20 16 19 19 9 17 16 13 15 27 21 21 18 12 13 12 13 21 20 15 17 17 5 3 11 11 10 9 9 9 6 4 2 1 2 3 1 5 4
17 17 20 24 14 24 28 16 21 26 17 7 20 11 30 16 14 27 19 18 18 14 17 23 18 14 13 8 2 6 10 11 12 12 9 8 7 3 3 7 5 3 2 4
20 18 20 20 19 15 20 19 16 10 8 9 15 11 29 20 17 22 26 20 17 18 15 19 23 17 13 9 10 5 9 9 9 9 7 7 7 5 4 3 2 3 3 2
19 19 19 21 16 17 18 15 11 12 10 12 18 13 14 20 9 25 24 30 27 20 17 12 20 20 17 14 11 9 6 6 8 8 7 4 6 7 8 5 4 4 4 4
16 21 17 11 17 14 11 12 11 9 8 9 7 9 12 28 17 11 25 28 33 31 21 14 19 25 24 21 14 6 2 5 4 5 4 2 4 6 6 5 1 5 2 3
20 18 18 10 19 14 13 15 17 6 5 7 10 7 4 7 17 16 16 27 35 31 24 17 19 26 25 23 16 8 2 4 2 2 1 2 2 5 5 5 5 9 5 3
18 28 16 20 22 14 21 22 21 24 24 13 5 4 9 10 18 20 23 27 34 30 25 21 18 24 24 24 19 3 3 1 2 6 6 1 3 3 4 4 6 8 6 5
27 25 20 22 24 20 15 18 12 16 3 5 1 12 9 13 20 13 20 36 37 34 27 28 24 22 23 20 18 4 4 2 1 2 3 2 4 5 4 4 4 6 6 5
16 18 25 20 22 24 20 21 19 16 16 7 2 6 8 18 22 17 17 33 34 40 25 33 28 22 8 15 6 3 7 5 3 2 6 6 8 11 7 2 2 4 6 6
23 15 21 18 20 16 21 19 17 18 15 19 16 10 14 16 12 30 9 26 30 33 27 32 30 29 15 12 13 6 5 7 5 3 5 9 6 2 11 7 5 6 7 8
12 18 19 24 20 20 17 20 20 19 22 28 14 13 9 16 14 15 19 24 36 17 19 14 38 37 20 14 13 7 6 6 4 3 4 6 4 3 3 7 6 6 7 8
17 12 21 23 21 11 24 19 24 23 21 24 19 11 22 17 19 17 19 23 19 11 14 14 42 41 22 17 14 9 9 6 4 2 6 9 11 7 5 3 4 6 7 8
18 15 15 24 24 21 21 26 19 21 23 21 17 8 9 20 24 21 21 23 20 16 16 19 26 31 22 18 18 10 12 8 4 6 10 11 11 10 11 9 9 10 11 12
11 17 16 20 18 20 20 14 27 24 14 27 21 12 9 30 20 22 19 22 22 24 21 18 23 23 21 16 12 15 13 9 8 11 13 10 10 11 13 14 13 14 14 15
11 14 18 20 15 18 20 15 13 10 23 19 20 16 25 27 31 20 13 16 27 28 25 19 18 18 18 18 20 16 15 11 8 9 12 12 12 10 9 8 8 9 10 12
13 12 17 20 21 7 17 12 13 15 15 18 15 24 24 24 23 18 20 14 28 32 27 20 20 18 19 21 20 18 14 11 4 3 4 4 5 5 5 5 5 5 6 8
12 17 18 24 21 21 20 20 13 10 5 7 23 23 22 20 21 27 25 24 27 28 24 23 20 19 23 21 19 17 16 11 3 11 10 6 8 8 7 6 6 8 9 11
21 21 26 23 14 6 24 21 13 14 8 8 14 19 22 20 31 30 27 26 34 26 27 24 19 21 23 22 20 19 15 7 2 11 13 10 9 8 7 7 8 10 13 16
13 24 29 27 24 19 10 20 13 3 12 10 14 11 11 23 23 29 33 37 29 29 24 22 17 21 21 21 22 17 12 6 4 9 8 7 7 6 6 7 11 13 16 20
27 17 17 22 21 18 15 13 12 18 2 7 11 11 11 10 12 11 15 27 37 31 29 17 14 21 25 23 17 13 10 4 3 3 1 1 4 7 10 12 16 18 20 24
26 19 11 7 8 7 19 10 9 18 30 20 15 14 14 8 8 8 16 5 26 27 22 15 13 20 27 18 16 14 11 7 4 3 4 6 8 12 16 18 20 20 23 25
32 23 26 9 8 8 12 20 9 18 25 15 13 13 13 12 7 7 3 16 27 23 21 16 15 23 25 21 19 17 16 11 8 8 9 11 13 16 19 20 23 26 28 32
24 35 33 15 11 15 12 17 11 13 16 16 17 15 12 11 4 8 15 25 19 18 20 19 20 17 12 17 20 18 15 12 12 12 15 18 20 22 23 24 27 28 30 35
17 20 26 21 13 6 6 17 24 23 17 18 16 21 14 11 13 17 22 21 19 21 19 20 21 21 14 21 19 18 17 18 17 19 20 20 24 25 24 26 28 29 30 27
Wind_Direction
218 230 246 237 251 249 321 108 279 217 204 181 167 186 184 181 195 184 176 189 195 199 208 224 207 218 233 252 257 235 236 199 184 202 229 147 157 187 305 18 284 69 89 79
215 227 233 248 236 240 256 193 157 163 187 220 127 200 186 184 202 206 191 203 202 197 214 222 197 208 233 265 269 230 235 221 203 212 223 237 233 239 347 3 333 43 60 56
228 227 223 258 237 224 257 211 198 192 183 220 186 177 195 184 198 215 205 216 226 202 210 227 239 221 239 264 206 242 240 237 232 224 232 247 262 92 96 356 303 149 45 20
237 241 241 240 245 236 240 211 260 221 188 204 182 174 185 187 201 210 213 217 222 222 210 223 233 241 252 265 273 267 237 226 233 240 240 243 255 236 213 171 201 209 44 353
242 243 247 252 253 247 264 210 225 218 315 309 218 162 194 202 194 203 209 223 223 224 229 230 233 243 279 302 296 296 251 227 236 248 249 232 246 243 265 317 354 341 339 309
252 232 248 260 253 251 273 288 268 287 258 245 265 146 188 203 236 240 215 211 218 221 224 237 233 236 255 275 307 302 274 236 234 250 267 251 236 241 245 268 299 300 295 24
243 255 236 252 239 246 243 266 290 299 287 237 215 173 220 193 224 209 229 220 205 216 221 223 217 226 238 256 283 310 248 228 229 242 281 275 253 254 261 253 281 282 327 176
241 253 245 244 244 233 231 243 251 238 243 277 200 182 231 178 216 197 184 204 195 206 219 229 223 218 230 248 274 299 166 195 203 122 344 37 279 247 243 250 243 254 282 253
239 240 233 236 229 226 218 254 247 264 283 318 143 111 134 171 193 191 199 186 187 193 212 223 220 217 232 240 259 239 181 96 89 97 87 36 294 283 257 248 247 254 266 265
239 273 265 289 218 224 234 225 281 242 256 284 172 166 193 162 183 203 196 190 191 189 208 214 216 214 221 235 250 241 173 146 179 184 42 4 309 277 267 253 236 252 286 294
251 256 271 297 190 207 217 249 253 265 266 205 174 222 208 178 180 171 160 191 188 188 205 208 206 213 221 225 205 154 141 172 165 225 261 314 311 275 256 204 256 243 269 292
225 250 266 267 200 215 219 238 240 252 267 276 279 193 151 171 181 219 209 182 181 184 204 199 209 212 204 244 242 214 132 173 182 246 283 271 323 38 192 216 254 246 258 271
236 233 260 277 265 217 210 233 239 236 254 265 276 181 192 151 148 152 163 190 189 241 207 149 204 205 209 220 245 233 188 195 194 245 308 319 339 345 272 237 236 238 255 272
236 257 222 247 253 197 221 223 222 242 258 257 274 248 171 167 197 191 182 167 185 162 178 142 180 195 206 215 228 244 212 200 186 250 301 319 321 314 292 291 287 292 282 275
231 250 231 245 265 279 298 208 215 240 253 265 270 204 162 191 167 172 191 186 189 174 161 167 183 187 207 206 214 230 203 204 222 276 286 293 289 287 273 280 280 284 291 290
228 240 247 275 269 269 277 242 221 220 231 253 265 225 219 187 239 195 198 207 200 189 183 179 188 208 216 225 220 202 191 198 239 269 281 281 274 264 262 266 279 287 289 289
223 231 250 266 261 267 290 248 263 266 229 241 243 221 180 172 178 192 205 196 190 180 184 186 188 205 209 198 184 180 199 214 242 275 284 286 280 281 277 282 289 291 296 296
278 245 246 262 260 283 270 234 236 249 271 227 227 171 175 185 195 211 197 202 188 188 187 176 180 191 190 181 181 190 201 191 207 328 344 300 273 268 273 283 295 304 311 320
256 261 261 244 257 263 255 245 251 233 253 177 173 168 175 177 168 180 185 185 208 197 184 177 174 180 186 189 193 197 184 179 88 68 75 80 93 87 78 59 38 14 353 342
237 251 258 252 244 248 246 241 245 242 257 184 170 168 179 181 187 191 196 199 187 202 181 177 170 181 192 191 194 189 185 192 11 51 52 58 79 72 62 39 15 354 341 334
297 255 247 253 262 266 261 239 214 42 228 201 217 223 213 205 223 215 247 226 177 178 186 176 173 188 192 192 186 194 203 230 62 71 74 60 43 27 9 349 334 329 323 323
250 288 276 248 278 266 252 220 239 219 203 204 224 224 217 216 215 241 234 219 238 178 168 184 182 190 182 181 194 197 211 217 104 120 148 321 341 335 325 319 316 319 320 318
254 256 261 33 346 341 194 164 186 206 237 225 220 223 226 178 187 241 285 104 153 155 170 186 187 198 187 192 196 207 220 207 208 238 282 295 306 309 308 312 313 314 312 323
220 240 253 282 341 140 112 176 209 195 222 182 186 187 186 212 233 195 61 147 159 157 191 196 202 202 199 199 209 215 222 226 236 262 279 290 301 296 299 307 312 313 321 322
227 237 250 254 293 234 227 187 210 196 170 178 157 173 203 211 183 152 128 155 166 176 198 208 204 186 212 220 232 240 254 265 263 270 289 299 301 304 308 312 312 312 313 309
261 270 251 246 257 324 260 167 178 173 181 183 171 166 181 175 169 155 151 175 181 194 207 223 211 207 264 220 233 245 243 255 272 283 283 290 297 300 298 301 304 302 299 300